| time (UTC) | temp F | wind direction | speed MPH | gust MPH | rain 1hr in | rain 24hr in | rain mn in | humidity % | barometer mb |
| 20260506123051 | 54 | 0 | 0.0 | 0.0 | 0.00 | 0.01 | 0.00 | 91 | 1019.7 |
| 20260506121548 | 55 | 0 | 0.0 | 1.0 | 0.00 | 0.01 | 0.00 | 91 | 1019.5 |
| 20260506120100 | 54 | 0 | 0.0 | 2.0 | 0.00 | 0.01 | 0.00 | 91 | 1019.5 |
| 20260506114553 | 55 | 0 | 0.0 | 1.0 | 0.00 | 0.01 | 0.00 | 91 | 1019.4 |
| 20260506113057 | 54 | 0 | 0.0 | 2.0 | 0.00 | 0.01 | 0.00 | 90 | 1019.4 |
| 20260506111549 | 55 | 192 | 0.0 | 2.0 | 0.00 | 0.01 | 0.00 | 90 | 1019.3 |
| 20260506110103 | 55 | 209 | 0.0 | 3.0 | 0.00 | 0.01 | 0.00 | 90 | 1019.2 |
| 20260506104555 | 55 | 214 | 1.0 | 4.0 | 0.00 | 0.01 | 0.00 | 90 | 1019.2 |
| 20260506103050 | 55 | 139 | 1.0 | 3.0 | 0.00 | 0.01 | 0.00 | 90 | 1019.1 |
| 20260506101549 | 55 | 0 | 0.0 | 3.0 | 0.00 | 0.01 | 0.00 | 90 | 1019.0 |
| 20260506100050 | 55 | 108 | 1.0 | 3.0 | 0.00 | 0.01 | 0.00 | 90 | 1018.9 |
| 20260506094607 | 55 | 0 | 0.0 | 3.0 | 0.00 | 0.03 | 0.00 | 90 | 1018.8 |
| 20260506093051 | 55 | 0 | 0.0 | 3.0 | 0.00 | 0.03 | 0.00 | 90 | 1018.8 |
| 20260506091550 | 55 | 133 | 0.0 | 3.0 | 0.00 | 0.03 | 0.00 | 90 | 1018.9 |
| 20260506090048 | 55 | 132 | 1.0 | 4.0 | 0.00 | 0.03 | 0.00 | 90 | 1018.9 |
| 20260506084547 | 55 | 0 | 0.0 | 2.0 | 0.00 | 0.06 | 0.00 | 90 | 1019.0 |
| 20260506083053 | 55 | 132 | 1.0 | 3.0 | 0.00 | 0.06 | 0.00 | 89 | 1019.1 |
| 20260506081556 | 55 | 126 | 0.0 | 3.0 | 0.00 | 0.06 | 0.00 | 89 | 1019.1 |
| 20260506073051 | 55 | 118 | 1.0 | 4.0 | 0.00 | 0.06 | 0.00 | 89 | 1018.8 |
| 20260506071554 | 55 | 132 | 1.0 | 4.0 | 0.00 | 0.06 | 0.00 | 89 | 1018.6 |
| 20260506061554 | 55 | 136 | 3.0 | 8.0 | 0.00 | 0.15 | 0.06 | 89 | 1018.2 |
| 20260506060117 | 55 | 117 | 2.0 | 4.0 | 0.00 | 0.15 | 0.06 | 88 | 1018.1 |
| 20260506044603 | 56 | 119 | 2.0 | 6.0 | 0.00 | 0.15 | 0.06 | 87 | 1017.7 |
| 20260506043047 | 56 | 117 | 2.0 | 8.0 | 0.00 | 0.15 | 0.06 | 87 | 1017.3 |
| 20260506041555 | 56 | 116 | 2.0 | 7.0 | 0.00 | 0.15 | 0.06 | 86 | 1017.1 |
| 20260506040057 | 57 | 108 | 2.0 | 7.0 | 0.00 | 0.15 | 0.06 | 84 | 1016.8 |
| 20260506034549 | 57 | 136 | 3.0 | 7.0 | 0.00 | 0.16 | 0.06 | 82 | 1016.7 |
| 20260506033051 | 58 | 117 | 3.0 | 8.0 | 0.00 | 0.16 | 0.06 | 81 | 1016.6 |
| 20260506031557 | 58 | 120 | 2.0 | 7.0 | 0.00 | 0.16 | 0.06 | 80 | 1016.1 |
| 20260506030052 | 59 | 95 | 2.0 | 9.0 | 0.00 | 0.16 | 0.06 | 78 | 1015.9 |
| 20260506024600 | 60 | 117 | 3.0 | 8.0 | 0.00 | 0.19 | 0.06 | 77 | 1015.7 |
| 20260506023058 | 61 | 98 | 2.0 | 8.0 | 0.00 | 0.19 | 0.06 | 76 | 1015.6 |
| 20260506021555 | 61 | 0 | 0.0 | 5.0 | 0.00 | 0.19 | 0.06 | 75 | 1015.4 |
| 20260506020054 | 62 | 213 | 1.0 | 5.0 | 0.00 | 0.19 | 0.06 | 74 | 1015.4 |
| 20260506014556 | 63 | 275 | 1.0 | 5.0 | 0.00 | 0.25 | 0.06 | 73 | 1015.1 |
| 20260506013051 | 63 | 68 | 0.0 | 6.0 | 0.00 | 0.25 | 0.06 | 72 | 1015.3 |
| 20260506011553 | 65 | 194 | 1.0 | 6.0 | 0.00 | 0.25 | 0.06 | 71 | 1015.0 |
| 20260506010055 | 64 | 207 | 1.0 | 6.0 | 0.00 | 0.25 | 0.06 | 72 | 1015.0 |
| 20260506004552 | 64 | 306 | 1.0 | 7.0 | 0.00 | 0.28 | 0.06 | 72 | 1015.0 |
| 20260506003050 | 64 | 0 | 1.0 | 6.0 | 0.00 | 0.28 | 0.06 | 72 | 1015.0 |
| 20260506001601 | 64 | 231 | 2.0 | 7.0 | 0.00 | 0.28 | 0.06 | 73 | 1014.8 |
| 20260506000052 | 64 | 113 | 3.0 | 9.0 | 0.00 | 0.28 | 0.06 | 73 | 1014.7 |
| 20260505234551 | 64 | 148 | 3.0 | 9.0 | 0.00 | 0.31 | 0.06 | 73 | 1014.9 |
| 20260505233050 | 65 | 184 | 2.0 | 8.0 | 0.00 | 0.31 | 0.06 | 73 | 1014.7 |
| 20260505231601 | 65 | 120 | 1.0 | 7.0 | 0.00 | 0.31 | 0.06 | 73 | 1014.8 |
| 20260505230057 | 66 | 0 | 0.0 | 6.0 | 0.00 | 0.31 | 0.06 | 73 | 1014.8 |
| 20260505224554 | 66 | 233 | 1.0 | 3.0 | 0.00 | 0.37 | 0.06 | 71 | 1014.7 |
| 20260505223053 | 66 | 199 | 0.0 | 6.0 | 0.00 | 0.37 | 0.06 | 72 | 1014.8 |
| 20260505221552 | 66 | 5 | 1.0 | 4.0 | 0.00 | 0.37 | 0.06 | 73 | 1014.9 |
| 20260505220050 | 65 | 0 | 1.0 | 3.0 | 0.00 | 0.37 | 0.06 | 73 | 1015.1 |
| 20260505214547 | 65 | 313 | 1.0 | 3.0 | 0.00 | 0.38 | 0.06 | 73 | 1015.2 |
| 20260505213058 | 64 | 92 | 1.0 | 4.0 | 0.00 | 0.38 | 0.06 | 73 | 1015.3 |
| 20260505211552 | 63 | 0 | 0.0 | 3.0 | 0.00 | 0.38 | 0.06 | 74 | 1015.5 |
| 20260505210054 | 63 | 0 | 1.0 | 3.0 | 0.00 | 0.38 | 0.06 | 75 | 1015.5 |
| 20260505204555 | 63 | 236 | 1.0 | 3.0 | 0.00 | 0.38 | 0.06 | 75 | 1015.4 |
| 20260505203048 | 63 | 288 | 1.0 | 5.0 | 0.00 | 0.38 | 0.06 | 77 | 1015.5 |
| 20260505201549 | 63 | 184 | 0.0 | 2.0 | 0.00 | 0.38 | 0.06 | 77 | 1015.6 |
| 20260505200049 | 62 | 78 | 0.0 | 3.0 | 0.00 | 0.38 | 0.06 | 76 | 1015.6 |
| 20260505194552 | 62 | 352 | 0.0 | 3.0 | 0.00 | 0.38 | 0.06 | 77 | 1015.5 |
| 20260505193052 | 62 | 135 | 0.0 | 2.0 | 0.00 | 0.38 | 0.06 | 77 | 1015.7 |
| 20260505191610 | 62 | 251 | 0.0 | 4.0 | 0.00 | 0.38 | 0.06 | 77 | 1015.7 |
| 20260505190052 | 63 | 188 | 0.0 | 5.0 | 0.00 | 0.38 | 0.06 | 76 | 1015.6 |
| 20260505184553 | 62 | 133 | 0.0 | 3.0 | 0.00 | 0.38 | 0.06 | 77 | 1015.7 |
| 20260505183050 | 63 | 294 | 1.0 | 3.0 | 0.00 | 0.38 | 0.06 | 74 | 1015.6 |
| 20260505181554 | 61 | 108 | 2.0 | 4.0 | 0.00 | 0.38 | 0.06 | 77 | 1015.6 |
| 20260505180103 | 62 | 121 | 0.0 | 3.0 | 0.00 | 0.38 | 0.06 | 79 | 1015.6 |
| 20260505174559 | 61 | 329 | 0.0 | 2.0 | 0.00 | 0.38 | 0.06 | 79 | 1015.4 |
| 20260505173053 | 61 | 0 | 0.0 | 4.0 | 0.00 | 0.38 | 0.06 | 81 | 1015.3 |
| 20260505171553 | 58 | 119 | 0.0 | 3.0 | 0.00 | 0.38 | 0.06 | 88 | 1015.3 |
| 20260505170059 | 56 | 163 | 0.0 | 3.0 | 0.00 | 0.38 | 0.06 | 91 | 1015.4 |
| 20260505164552 | 56 | 0 | 0.0 | 1.0 | 0.00 | 0.38 | 0.06 | 94 | 1015.3 |
| 20260505163049 | 55 | 0 | 0.0 | 2.0 | 0.00 | 0.38 | 0.06 | 96 | 1015.2 |
| 20260505161553 | 54 | 299 | 0.0 | 3.0 | 0.00 | 0.38 | 0.06 | 97 | 1015.2 |
| 20260505153050 | 54 | 189 | 0.0 | 1.0 | 0.01 | 0.38 | 0.06 | 98 | 1015.1 |
| 20260505151551 | 53 | 0 | 0.0 | 1.0 | 0.01 | 0.38 | 0.06 | 98 | 1015.0 |
| 20260505124550 | 52 | 0 | 0.0 | 0.0 | 0.00 | 0.37 | 0.05 | 97 | 1014.0 |